Location: Austin
(30.3000°N, 97.7500°W)
Time: 10:06:28
(UTC-05:00)

Cosmos 1151 Rocket - Pass Details

Date: 26 May 2023
Orbit: 591 x 612 km, 82.5° (Epoch: 30 May)

Event Time Altitude Azimuth Distance (km) Brightness Sun altitude
Exits shadow 22:11:37 36° 185° (S) 952 3.7 -20.1°
Maximum altitude 22:13:20 90° 79° (E) 603 2.9 -20.4°
Drops below altitude 10° 22:17:38 10° 6° (N) 1,949 6.1 -21.1°
Sets 22:19:52 0° 6° (N) 2,859 7.0 -21.4°
